Simultaneous Nadir Overpasses (SNOs) Predictions

Prediction of SNOs between GOES-17 and TERRA Satellite Orbit:

Table of predicted SNOs for the next 14.0 days since TLE Epoch: 3/11/2023
Index Date Time (GOES-17) GOES-17 Lat,Lon TERRA Lat,Lon Distance(km) Time Diff (sec)
1 03/11/2023 16:59:56 -0.00,-104.75 -0.48,-102.35 272.42 80
2 03/12/2023 05:20:22 0.00,-104.72 -0.51,-107.32 294.89 80
3 03/14/2023 05:02:56 0.00,-104.72 0.30,-103.45 145.85 4
4 03/14/2023 17:21:56 -0.01,-104.76 0.73,-108.37 410.35 80
5 03/16/2023 17:08:33 -0.01,-104.76 -0.08,-104.49 30.24 80
6 03/18/2023 16:52:29 -0.01,-104.76 -0.86,-100.61 471.29 80
7 03/19/2023 05:12:54 0.02,-104.73 -0.13,-105.57 95.64 80
8 03/21/2023 04:56:49 0.01,-104.73 0.65,-101.68 346.52 80
9 03/21/2023 17:14:25 -0.01,-104.77 0.36,-106.61 209.44 80
10 03/23/2023 17:01:00 -0.01,-104.77 -0.47,-102.73 233.45 80
11 03/24/2023 05:21:22 0.02,-104.75 -0.61,-107.67 332.74 80
